STARLINK-34641, 64797

Orbit data source: Space-Track

STARLINK-34641, 64797 is a payload satellite owned by SpaceX/Seattle (US) in LEO that was launched on Wed, 16 Jul 2025 UTC via an FALCON 9 launch vehicle from the Air Force Western Test Range (AFWTR). Payload-class satellites include a variety of spacecraft equipped with specific instruments for various scientific and technological missions. These include communications satellites like Starlink; space stations such as the ISS; scientific satellites like the Hubble; Earth observation satellites from companies like Planet Labs, Umbra, and HawkEye 360; GPS; miniature CubeSats for education and research; and military/defense satellites.

Loading next visibility...
Identifier
64797, 2025-150H
Orbit
LEO
Country
Flag of USUS
Related business
Manufacturer
SpaceX/Seattle
Mission
Operational Commercial Communications
Bus & Motor
STARLINK V2MO, Unknown motor
Mass
575 kg wet, ~530 kg dry
Launch date (UTC)
2025-07-16 (11 months ago)
Launch vehicle
FALCON 9
Launch site
Air Force Western Test Range (AFWTR)
Object type
Payload
Rocket body
Debris
Shape & HBR
Box + 2 Pan, 17.7 m
Radar Cross Section
36.964 m², Large (>1 m²)

Expand to show TLE details & history
Last TLE update: 9 hours ago

TLE from 9 hours ago
0 STARLINK-34641
1 64797U 25150H   26171.47237436  .00005204  00000-0  44336-3 0  9993
2 64797  69.9998 235.2593 0003871 268.4755  91.5960 14.98349156 52748
Epoch: 2026-06-20T11:20Z
TLE epoch observation values (Epoch: 2026-06-20T11:20:13.144Z)
Latitude
-0.0001°
Longitude
156.51799°
Altitude
574.497 km
Speed
7.574 km/s
True Right ascension
15h 41m 02s
True Declination
0° 00' 00"
Sunlit
Object was in full shadow at epoch
Visualization orbit readout
Latitude
Unknown
Longitude
Unknown
Altitude
Unknown
Speed
Unknown
Apparent Right ascension
Unknown
Apparent Declination
Unknown
Sunlit
N/A
Visualization observer readout
Local Sidereal Time
07:11:37
Azimuth
Unknown
Elevation
Unknown
Doppler factor
Unknown
Orbital elements
Apogee altitude
572.634 km
Perigee altitude
567.255 km
Semi-major axis
6,948.082 km
Eccentricity
0.00039
Inclination
69.9998°
RAAN
235.2593°
Arg. of periapsis
268.4755°
True anomaly
91.64034°
Mean anomaly
91.596°
Eccentric anomaly
91.61817°
Mean motion
3.74754 °/min
Orbital period
96.06 mins
BSTAR
0.00044336
Loading maneuver chart data...
Computing Atmospheric mass density...
Loading historical data...
Loading historical data...
Loading historical data...
Loading historical data...
Loading historical data...
Loading historical data...
Loading historical data...

Documentation

Showing up to 5 results
|